GEFSMA_prec_meanprec_102.txt.gz
QPF
0.20 0.23 0.16 0.12 0.12 0.12 0.11 0.15 0.17 0.19 0.20 0.21 0.19 0.14 0.11 0.09 0.07 0.05 0.04 0.03 0.02 0.03 0.04 0.08 0.12 0.14 0.13 0.11 0.07 0.05 0.03 0.02 0.02 0.02 0.03 0.03 0.02 0.02 0.01 0.01 0.01 0.00 0.00
0.25 0.26 0.24 0.19 0.15 0.14 0.13 0.14 0.18 0.22 0.23 0.23 0.19 0.17 0.14 0.15 0.11 0.08 0.07 0.07 0.05 0.04 0.04 0.06 0.11 0.14 0.13 0.13 0.12 0.08 0.05 0.03 0.03 0.02 0.01 0.02 0.03 0.02 0.01 0.01 0.01 0.01 0.00
0.26 0.22 0.19 0.16 0.14 0.15 0.15 0.15 0.18 0.20 0.17 0.17 0.16 0.16 0.15 0.14 0.13 0.12 0.11 0.10 0.09 0.07 0.05 0.06 0.09 0.12 0.14 0.14 0.11 0.11 0.08 0.05 0.03 0.02 0.01 0.01 0.02 0.02 0.02 0.01 0.01 0.01 0.00
0.25 0.22 0.18 0.16 0.18 0.19 0.19 0.20 0.21 0.19 0.16 0.16 0.18 0.21 0.20 0.16 0.14 0.12 0.12 0.11 0.11 0.08 0.08 0.06 0.07 0.09 0.12 0.15 0.13 0.12 0.11 0.08 0.05 0.04 0.02 0.01 0.01 0.01 0.02 0.02 0.01 0.01 0.00
0.22 0.18 0.16 0.16 0.20 0.23 0.23 0.24 0.26 0.20 0.16 0.14 0.14 0.17 0.17 0.15 0.11 0.10 0.08 0.08 0.09 0.08 0.08 0.08 0.07 0.08 0.12 0.16 0.17 0.16 0.16 0.13 0.09 0.07 0.04 0.03 0.02 0.01 0.01 0.02 0.01 0.01 0.01
0.13 0.11 0.11 0.12 0.14 0.16 0.15 0.16 0.19 0.18 0.16 0.15 0.15 0.15 0.15 0.12 0.11 0.09 0.08 0.08 0.06 0.05 0.05 0.07 0.09 0.07 0.07 0.11 0.15 0.18 0.19 0.18 0.14 0.11 0.08 0.05 0.03 0.02 0.01 0.01 0.01 0.01 0.01
0.06 0.08 0.08 0.09 0.09 0.10 0.11 0.12 0.14 0.15 0.17 0.19 0.17 0.15 0.12 0.11 0.09 0.07 0.07 0.07 0.06 0.05 0.06 0.08 0.09 0.08 0.06 0.05 0.07 0.12 0.17 0.17 0.15 0.13 0.11 0.08 0.06 0.04 0.02 0.02 0.02 0.01 0.01
0.06 0.06 0.06 0.07 0.08 0.08 0.08 0.10 0.14 0.17 0.18 0.18 0.18 0.18 0.14 0.10 0.06 0.04 0.05 0.05 0.05 0.06 0.05 0.07 0.09 0.09 0.07 0.06 0.04 0.04 0.09 0.14 0.15 0.12 0.10 0.09 0.07 0.05 0.03 0.02 0.02 0.02 0.01
0.03 0.03 0.04 0.06 0.08 0.08 0.07 0.07 0.08 0.11 0.12 0.13 0.14 0.15 0.13 0.11 0.08 0.06 0.04 0.05 0.06 0.07 0.06 0.06 0.06 0.08 0.07 0.07 0.08 0.04 0.05 0.08 0.11 0.13 0.11 0.10 0.08 0.06 0.04 0.03 0.02 0.01 0.01
0.02 0.03 0.04 0.05 0.06 0.08 0.07 0.05 0.05 0.07 0.07 0.07 0.08 0.08 0.08 0.08 0.09 0.07 0.06 0.06 0.07 0.07 0.07 0.07 0.07 0.08 0.09 0.08 0.08 0.05 0.03 0.04 0.06 0.11 0.13 0.12 0.09 0.06 0.04 0.04 0.04 0.02 0.01
0.01 0.01 0.02 0.04 0.04 0.05 0.06 0.05 0.04 0.04 0.05 0.05 0.05 0.05 0.05 0.05 0.05 0.07 0.07 0.07 0.07 0.07 0.07 0.07 0.07 0.08 0.09 0.10 0.10 0.06 0.04 0.03 0.02 0.05 0.09 0.12 0.11 0.08 0.05 0.05 0.06 0.05 0.03
0.01 0.01 0.01 0.02 0.03 0.03 0.04 0.05 0.04 0.03 0.03 0.04 0.04 0.03 0.03 0.03 0.03 0.06 0.07 0.07 0.07 0.07 0.09 0.09 0.09 0.09 0.10 0.09 0.08 0.06 0.05 0.03 0.02 0.02 0.04 0.07 0.09 0.08 0.07 0.06 0.07 0.08 0.07
0.00 0.01 0.01 0.01 0.01 0.02 0.02 0.03 0.03 0.03 0.03 0.04 0.04 0.03 0.02 0.02 0.02 0.03 0.05 0.06 0.06 0.06 0.07 0.08 0.08 0.10 0.10 0.10 0.09 0.08 0.06 0.05 0.03 0.02 0.02 0.03 0.05 0.05 0.05 0.05 0.06 0.08 0.08
0.00 0.00 0.00 0.01 0.00 0.01 0.01 0.03 0.03 0.03 0.03 0.04 0.03 0.03 0.02 0.01 0.02 0.03 0.03 0.05 0.06 0.05 0.06 0.06 0.05 0.07 0.08 0.11 0.12 0.11 0.08 0.06 0.05 0.04 0.03 0.02 0.03 0.03 0.03 0.03 0.04 0.04 0.05
0.00 0.00 0.00 0.01 0.01 0.01 0.01 0.02 0.03 0.03 0.04 0.03 0.03 0.03 0.03 0.02 0.02 0.02 0.03 0.05 0.07 0.07 0.06 0.06 0.07 0.07 0.09 0.10 0.13 0.12 0.11 0.09 0.07 0.06 0.05 0.03 0.03 0.03 0.02 0.02 0.02 0.02 0.03
0.00 0.00 0.00 0.01 0.01 0.01 0.02 0.02 0.02 0.02 0.03 0.03 0.03 0.03 0.03 0.02 0.02 0.02 0.02 0.04 0.06 0.08 0.08 0.07 0.08 0.08 0.09 0.09 0.11 0.13 0.13 0.11 0.09 0.07 0.06 0.04 0.04 0.03 0.03 0.02 0.02 0.02 0.02
0.00 0.00 0.00 0.01 0.01 0.01 0.01 0.02 0.02 0.02 0.02 0.02 0.03 0.03 0.03 0.03 0.03 0.02 0.02 0.02 0.03 0.05 0.07 0.08 0.09 0.11 0.10 0.12 0.13 0.13 0.14 0.14 0.10 0.09 0.07 0.06 0.05 0.04 0.04 0.04 0.02 0.02 0.02
0.00 0.00 0.00 0.00 0.00 0.01 0.01 0.01 0.01 0.02 0.02 0.02 0.02 0.03 0.03 0.03 0.04 0.03 0.02 0.02 0.03 0.04 0.06 0.07 0.09 0.13 0.14 0.15 0.17 0.17 0.16 0.16 0.13 0.11 0.09 0.06 0.05 0.04 0.05 0.05 0.04 0.03 0.02
0.00 0.00 0.00 0.00 0.00 0.01 0.01 0.01 0.01 0.02 0.02 0.02 0.02 0.02 0.02 0.03 0.04 0.04 0.04 0.03 0.03 0.03 0.06 0.07 0.08 0.12 0.17 0.18 0.19 0.19 0.20 0.19 0.15 0.13 0.12 0.09 0.07 0.05 0.04 0.05 0.05 0.04 0.03
0.00 0.00 0.01 0.01 0.01 0.01 0.00 0.01 0.01 0.01 0.02 0.02 0.02 0.02 0.02 0.03 0.03 0.04 0.05 0.06 0.05 0.05 0.05 0.07 0.09 0.11 0.15 0.20 0.22 0.22 0.20 0.21 0.17 0.12 0.11 0.09 0.07 0.06 0.05 0.04 0.05 0.04 0.03
0.00 0.00 0.00 0.01 0.01 0.01 0.00 0.01 0.01 0.02 0.02 0.02 0.02 0.02 0.02 0.02 0.02 0.03 0.03 0.05 0.07 0.07 0.06 0.07 0.09 0.13 0.15 0.19 0.24 0.25 0.23 0.21 0.20 0.14 0.10 0.08 0.06 0.04 0.03 0.03 0.03 0.04 0.04
0.00 0.00 0.01 0.01 0.01 0.01 0.00 0.00 0.00 0.01 0.02 0.03 0.03 0.04 0.03 0.02 0.01 0.01 0.01 0.02 0.04 0.07 0.07 0.07 0.08 0.11 0.16 0.19 0.23 0.28 0.29 0.24 0.21 0.17 0.12 0.10 0.07 0.04 0.02 0.02 0.02 0.03 0.04
0.00 0.01 0.01 0.01 0.01 0.01 0.00 0.00 0.00 0.01 0.02 0.03 0.04 0.04 0.04 0.03 0.03 0.04 0.04 0.02 0.02 0.03 0.05 0.07 0.08 0.09 0.15 0.20 0.24 0.30 0.31 0.27 0.22 0.17 0.13 0.12 0.11 0.08 0.04 0.03 0.03 0.02 0.03
0.01 0.01 0.01 0.01 0.02 0.01 0.00 0.00 0.00 0.01 0.02 0.03 0.04 0.05 0.06 0.07 0.06 0.07 0.08 0.07 0.05 0.04 0.04 0.05 0.07 0.10 0.14 0.19 0.23 0.28 0.34 0.34 0.29 0.24 0.19 0.14 0.12 0.10 0.07 0.05 0.04 0.03 0.03
0.01 0.01 0.01 0.01 0.01 0.02 0.01 0.00 0.00 0.01 0.03 0.04 0.04 0.05 0.06 0.07 0.06 0.03 0.07 0.10 0.09 0.07 0.05 0.04 0.04 0.08 0.15 0.19 0.22 0.27 0.33 0.40 0.38 0.30 0.25 0.20 0.14 0.11 0.10 0.08 0.07 0.05 0.03
0.00 0.01 0.01 0.01 0.01 0.02 0.01 0.00 0.00 0.02 0.04 0.05 0.05 0.05 0.04 0.04 0.03 0.02 0.07 0.11 0.10 0.09 0.08 0.07 0.05 0.06 0.13 0.17 0.18 0.21 0.27 0.31 0.36 0.35 0.25 0.21 0.17 0.12 0.11 0.10 0.09 0.08 0.05

GEFSMA_prec_meanprec_108.txt.gz
QPF
0.15 0.14 0.16 0.18 0.19 0.22 0.24 0.27 0.24 0.23 0.19 0.14 0.11 0.09 0.06 0.05 0.05 0.05 0.13 0.16 0.07 0.04 0.04 0.04 0.05 0.06 0.06 0.06 0.04 0.03 0.01 0.01 0.02 0.01 0.02 0.04 0.05 0.02 0.01 0.00 0.00 0.00 0.00
0.18 0.18 0.18 0.19 0.19 0.20 0.21 0.23 0.27 0.28 0.24 0.22 0.15 0.13 0.12 0.10 0.06 0.06 0.08 0.15 0.09 0.04 0.03 0.03 0.04 0.04 0.06 0.07 0.06 0.04 0.03 0.02 0.01 0.01 0.01 0.02 0.04 0.04 0.02 0.01 0.01 0.00 0.01
0.18 0.19 0.19 0.20 0.22 0.24 0.24 0.22 0.23 0.24 0.23 0.20 0.18 0.16 0.14 0.12 0.09 0.11 0.12 0.14 0.13 0.09 0.04 0.02 0.03 0.03 0.05 0.06 0.06 0.05 0.04 0.03 0.03 0.01 0.01 0.01 0.02 0.03 0.03 0.02 0.01 0.01 0.00
0.18 0.18 0.16 0.17 0.23 0.25 0.25 0.25 0.25 0.24 0.23 0.19 0.17 0.17 0.18 0.16 0.12 0.12 0.14 0.14 0.14 0.12 0.10 0.06 0.04 0.03 0.04 0.05 0.08 0.07 0.08 0.06 0.03 0.02 0.01 0.01 0.01 0.01 0.02 0.01 0.01 0.00 0.00
0.11 0.12 0.13 0.15 0.17 0.19 0.19 0.19 0.25 0.24 0.24 0.21 0.18 0.17 0.18 0.16 0.15 0.12 0.12 0.13 0.13 0.12 0.11 0.12 0.08 0.05 0.05 0.05 0.07 0.09 0.09 0.07 0.05 0.04 0.04 0.03 0.02 0.01 0.01 0.01 0.01 0.00 0.00
0.08 0.10 0.11 0.14 0.15 0.15 0.16 0.17 0.19 0.19 0.18 0.19 0.18 0.19 0.18 0.15 0.14 0.13 0.11 0.13 0.12 0.10 0.08 0.12 0.16 0.07 0.05 0.05 0.05 0.06 0.08 0.08 0.08 0.06 0.05 0.04 0.03 0.02 0.01 0.00 0.00 0.00 0.00
0.06 0.08 0.09 0.12 0.12 0.13 0.13 0.14 0.14 0.13 0.12 0.16 0.18 0.19 0.18 0.15 0.13 0.13 0.13 0.10 0.08 0.10 0.13 0.15 0.16 0.15 0.09 0.05 0.03 0.03 0.06 0.09 0.08 0.07 0.05 0.04 0.03 0.03 0.02 0.01 0.00 0.00 0.00
0.04 0.05 0.06 0.06 0.08 0.09 0.09 0.11 0.12 0.11 0.10 0.16 0.18 0.18 0.15 0.13 0.10 0.07 0.10 0.09 0.07 0.09 0.11 0.14 0.14 0.18 0.15 0.14 0.05 0.02 0.03 0.05 0.06 0.06 0.05 0.04 0.04 0.03 0.02 0.01 0.01 0.01 0.01
0.02 0.03 0.03 0.04 0.04 0.04 0.05 0.07 0.07 0.08 0.09 0.12 0.15 0.17 0.15 0.12 0.12 0.11 0.10 0.08 0.09 0.10 0.11 0.13 0.15 0.16 0.15 0.16 0.15 0.07 0.03 0.04 0.05 0.06 0.06 0.04 0.03 0.03 0.02 0.02 0.02 0.01 0.01
0.01 0.02 0.02 0.03 0.03 0.03 0.05 0.06 0.06 0.07 0.08 0.08 0.10 0.11 0.11 0.12 0.12 0.12 0.13 0.11 0.13 0.12 0.12 0.11 0.14 0.18 0.15 0.14 0.16 0.13 0.08 0.05 0.05 0.07 0.07 0.06 0.04 0.03 0.02 0.02 0.02 0.02 0.01
0.01 0.01 0.02 0.03 0.03 0.03 0.03 0.05 0.07 0.07 0.07 0.08 0.08 0.08 0.08 0.09 0.09 0.09 0.10 0.12 0.13 0.10 0.09 0.09 0.11 0.13 0.16 0.16 0.17 0.14 0.13 0.06 0.04 0.05 0.08 0.09 0.08 0.06 0.04 0.03 0.03 0.03 0.02
0.01 0.01 0.01 0.02 0.02 0.02 0.03 0.04 0.04 0.05 0.06 0.07 0.08 0.10 0.09 0.07 0.06 0.07 0.08 0.08 0.09 0.07 0.06 0.07 0.07 0.09 0.12 0.11 0.10 0.14 0.16 0.10 0.07 0.05 0.05 0.08 0.09 0.09 0.06 0.04 0.05 0.07 0.05
0.00 0.00 0.01 0.01 0.01 0.02 0.02 0.03 0.04 0.04 0.05 0.06 0.06 0.06 0.07 0.05 0.04 0.05 0.05 0.05 0.05 0.05 0.07 0.08 0.08 0.08 0.09 0.12 0.11 0.15 0.14 0.13 0.11 0.07 0.05 0.05 0.06 0.07 0.06 0.06 0.06 0.06 0.07
0.00 0.00 0.00 0.01 0.01 0.01 0.02 0.03 0.03 0.03 0.04 0.05 0.05 0.06 0.05 0.03 0.02 0.03 0.04 0.05 0.04 0.04 0.05 0.07 0.08 0.08 0.11 0.12 0.13 0.15 0.12 0.13 0.12 0.11 0.07 0.05 0.05 0.05 0.04 0.05 0.05 0.05 0.05
0.01 0.01 0.01 0.01 0.02 0.02 0.02 0.03 0.03 0.03 0.04 0.04 0.04 0.05 0.05 0.04 0.03 0.02 0.03 0.04 0.05 0.04 0.04 0.06 0.06 0.06 0.08 0.11 0.13 0.13 0.17 0.15 0.10 0.09 0.09 0.07 0.06 0.05 0.05 0.03 0.03 0.03 0.03
0.01 0.01 0.01 0.01 0.02 0.02 0.02 0.03 0.03 0.03 0.04 0.05 0.05 0.05 0.06 0.04 0.04 0.03 0.02 0.03 0.04 0.05 0.04 0.05 0.06 0.06 0.05 0.06 0.09 0.11 0.15 0.17 0.13 0.09 0.09 0.08 0.07 0.05 0.05 0.04 0.03 0.02 0.02
0.01 0.01 0.01 0.01 0.01 0.01 0.02 0.03 0.02 0.02 0.03 0.04 0.04 0.05 0.06 0.06 0.05 0.05 0.04 0.04 0.04 0.05 0.05 0.04 0.06 0.07 0.05 0.05 0.06 0.09 0.11 0.13 0.13 0.11 0.09 0.08 0.07 0.06 0.06 0.07 0.05 0.03 0.02
0.01 0.01 0.01 0.01 0.01 0.01 0.01 0.02 0.02 0.02 0.03 0.03 0.04 0.05 0.05 0.06 0.07 0.06 0.06 0.05 0.04 0.05 0.05 0.05 0.04 0.04 0.05 0.06 0.07 0.08 0.08 0.11 0.13 0.11 0.10 0.08 0.08 0.08 0.07 0.06 0.06 0.05 0.04
0.01 0.01 0.01 0.01 0.01 0.01 0.02 0.02 0.02 0.03 0.03 0.03 0.04 0.04 0.05 0.06 0.06 0.06 0.07 0.07 0.06 0.04 0.05 0.05 0.04 0.03 0.04 0.05 0.07 0.09 0.11 0.13 0.15 0.13 0.12 0.10 0.08 0.08 0.08 0.07 0.07 0.05 0.04
0.01 0.01 0.01 0.01 0.01 0.01 0.02 0.02 0.02 0.02 0.03 0.03 0.03 0.04 0.04 0.05 0.07 0.07 0.07 0.08 0.07 0.07 0.07 0.06 0.06 0.04 0.04 0.05 0.08 0.10 0.14 0.17 0.19 0.17 0.15 0.12 0.10 0.09 0.09 0.09 0.08 0.07 0.05
0.00 0.01 0.01 0.01 0.02 0.02 0.01 0.01 0.01 0.01 0.02 0.03 0.03 0.04 0.04 0.03 0.04 0.05 0.05 0.06 0.08 0.09 0.09 0.08 0.07 0.06 0.05 0.05 0.08 0.11 0.14 0.19 0.23 0.26 0.25 0.17 0.12 0.09 0.07 0.08 0.08 0.08 0.07
0.01 0.01 0.02 0.02 0.02 0.01 0.00 0.00 0.00 0.00 0.01 0.02 0.03 0.04 0.04 0.02 0.02 0.01 0.02 0.03 0.04 0.06 0.08 0.09 0.08 0.07 0.05 0.05 0.08 0.12 0.16 0.18 0.20 0.26 0.33 0.28 0.18 0.13 0.09 0.05 0.05 0.06 0.07
0.01 0.02 0.02 0.03 0.04 0.04 0.01 0.00 0.00 0.00 0.01 0.02 0.03 0.05 0.03 0.02 0.03 0.05 0.04 0.02 0.02 0.01 0.02 0.05 0.07 0.07 0.08 0.07 0.08 0.11 0.18 0.18 0.17 0.20 0.28 0.33 0.28 0.22 0.14 0.08 0.07 0.06 0.06
0.02 0.03 0.03 0.03 0.04 0.04 0.01 0.00 0.00 0.00 0.01 0.02 0.04 0.05 0.07 0.08 0.06 0.07 0.09 0.09 0.07 0.05 0.03 0.02 0.04 0.05 0.07 0.09 0.10 0.11 0.18 0.22 0.20 0.22 0.26 0.32 0.33 0.27 0.20 0.14 0.11 0.08 0.07
0.02 0.02 0.03 0.03 0.04 0.05 0.02 0.00 0.00 0.01 0.02 0.04 0.05 0.06 0.07 0.09 0.07 0.03 0.06 0.09 0.09 0.09 0.04 0.02 0.03 0.04 0.03 0.04 0.07 0.10 0.15 0.19 0.22 0.24 0.26 0.29 0.33 0.32 0.29 0.22 0.14 0.10 0.08
0.02 0.02 0.02 0.03 0.03 0.04 0.02 0.00 0.00 0.01 0.03 0.05 0.07 0.09 0.05 0.03 0.02 0.01 0.05 0.10 0.11 0.11 0.09 0.08 0.06 0.04 0.03 0.03 0.04 0.08 0.13 0.14 0.20 0.24 0.25 0.24 0.29 0.31 0.33 0.27 0.18 0.11 0.08

GEFSMA_prec_meanprec_114.txt.gz
QPF
0.14 0.11 0.11 0.12 0.13 0.15 0.14 0.15 0.20 0.18 0.14 0.12 0.11 0.14 0.19 0.16 0.11 0.11 0.18 0.22 0.23 0.21 0.15 0.12 0.08 0.07 0.05 0.03 0.01 0.01 0.01 0.00 0.00 0.00 0.00 0.01 0.01 0.00 0.00 0.00 0.00 0.00 0.00
0.13 0.11 0.10 0.10 0.12 0.12 0.12 0.12 0.14 0.17 0.18 0.18 0.16 0.13 0.15 0.17 0.13 0.12 0.15 0.20 0.22 0.23 0.19 0.15 0.11 0.08 0.07 0.05 0.02 0.02 0.01 0.01 0.00 0.00 0.00 0.00 0.01 0.01 0.00 0.00 0.00 0.00 0.00
0.10 0.08 0.07 0.09 0.10 0.09 0.09 0.09 0.12 0.14 0.15 0.18 0.17 0.12 0.09 0.09 0.09 0.09 0.12 0.16 0.20 0.21 0.18 0.17 0.14 0.11 0.08 0.06 0.04 0.03 0.02 0.02 0.01 0.01 0.00 0.00 0.00 0.00 0.00 0.00 0.00 0.00 0.00
0.10 0.07 0.06 0.07 0.06 0.06 0.06 0.07 0.08 0.12 0.13 0.14 0.14 0.10 0.07 0.06 0.06 0.06 0.08 0.12 0.16 0.16 0.13 0.13 0.13 0.11 0.10 0.08 0.06 0.04 0.03 0.02 0.02 0.01 0.00 0.00 0.00 0.00 0.00 0.00 0.00 0.00 0.00
0.09 0.06 0.03 0.02 0.02 0.03 0.05 0.05 0.07 0.10 0.13 0.11 0.09 0.07 0.07 0.07 0.06 0.05 0.08 0.11 0.12 0.10 0.10 0.10 0.11 0.10 0.10 0.10 0.10 0.08 0.06 0.04 0.03 0.02 0.02 0.01 0.01 0.00 0.00 0.00 0.00 0.00 0.00
0.04 0.04 0.03 0.02 0.02 0.02 0.02 0.04 0.06 0.07 0.09 0.10 0.09 0.07 0.07 0.07 0.06 0.05 0.05 0.06 0.06 0.06 0.07 0.07 0.07 0.07 0.09 0.09 0.10 0.12 0.10 0.07 0.05 0.04 0.03 0.03 0.02 0.01 0.01 0.00 0.00 0.00 0.00
0.03 0.03 0.02 0.02 0.02 0.02 0.02 0.03 0.04 0.06 0.06 0.07 0.07 0.06 0.04 0.04 0.04 0.03 0.03 0.05 0.06 0.07 0.08 0.08 0.09 0.09 0.06 0.07 0.08 0.09 0.11 0.09 0.06 0.05 0.03 0.04 0.03 0.01 0.01 0.00 0.00 0.00 0.00
0.02 0.01 0.01 0.01 0.01 0.01 0.02 0.02 0.03 0.03 0.04 0.06 0.06 0.06 0.04 0.03 0.02 0.02 0.03 0.05 0.06 0.08 0.09 0.10 0.12 0.11 0.12 0.08 0.05 0.07 0.10 0.11 0.09 0.07 0.05 0.04 0.03 0.02 0.01 0.00 0.00 0.00 0.00
0.01 0.01 0.01 0.01 0.02 0.01 0.01 0.01 0.02 0.02 0.02 0.03 0.04 0.05 0.04 0.03 0.03 0.02 0.02 0.04 0.07 0.08 0.09 0.14 0.15 0.14 0.12 0.10 0.06 0.07 0.10 0.12 0.14 0.13 0.09 0.06 0.04 0.03 0.02 0.01 0.00 0.00 0.00
0.01 0.01 0.01 0.01 0.01 0.01 0.01 0.01 0.01 0.02 0.02 0.01 0.02 0.02 0.03 0.03 0.02 0.01 0.01 0.02 0.05 0.08 0.10 0.13 0.16 0.19 0.18 0.12 0.08 0.06 0.08 0.10 0.13 0.16 0.15 0.11 0.07 0.04 0.03 0.02 0.01 0.01 0.01
0.01 0.01 0.01 0.01 0.01 0.01 0.01 0.01 0.01 0.02 0.02 0.02 0.01 0.02 0.02 0.03 0.03 0.02 0.01 0.02 0.04 0.04 0.06 0.10 0.14 0.18 0.17 0.14 0.12 0.10 0.11 0.12 0.12 0.14 0.16 0.18 0.14 0.09 0.05 0.04 0.04 0.03 0.02
0.00 0.00 0.00 0.00 0.00 0.01 0.01 0.01 0.01 0.01 0.01 0.01 0.01 0.01 0.02 0.03 0.03 0.02 0.02 0.03 0.03 0.03 0.04 0.05 0.08 0.11 0.15 0.14 0.11 0.09 0.08 0.10 0.10 0.10 0.11 0.14 0.16 0.16 0.12 0.08 0.07 0.07 0.05
0.00 0.00 0.00 0.00 0.00 0.00 0.00 0.00 0.00 0.00 0.01 0.01 0.01 0.01 0.01 0.03 0.03 0.03 0.03 0.03 0.03 0.02 0.02 0.03 0.04 0.06 0.08 0.12 0.10 0.10 0.09 0.09 0.09 0.10 0.10 0.11 0.12 0.13 0.14 0.12 0.10 0.09 0.08
0.00 0.00 0.00 0.00 0.00 0.00 0.00 0.00 0.00 0.00 0.00 0.00 0.01 0.01 0.01 0.01 0.02 0.03 0.03 0.03 0.03 0.02 0.02 0.02 0.03 0.04 0.05 0.07 0.08 0.09 0.08 0.08 0.09 0.10 0.11 0.10 0.10 0.09 0.10 0.10 0.09 0.08 0.07
0.00 0.00 0.00 0.00 0.00 0.00 0.00 0.00 0.00 0.00 0.00 0.00 0.00 0.00 0.01 0.01 0.01 0.01 0.02 0.03 0.04 0.04 0.02 0.02 0.03 0.04 0.04 0.05 0.05 0.06 0.06 0.07 0.06 0.07 0.07 0.06 0.07 0.08 0.08 0.07 0.07 0.06 0.05
0.00 0.00 0.00 0.00 0.00 0.00 0.00 0.00 0.00 0.00 0.00 0.00 0.00 0.00 0.00 0.00 0.01 0.01 0.02 0.02 0.03 0.05 0.04 0.02 0.02 0.03 0.04 0.04 0.06 0.04 0.04 0.07 0.07 0.05 0.05 0.05 0.05 0.05 0.06 0.07 0.07 0.06 0.05
0.00 0.00 0.00 0.00 0.00 0.00 0.00 0.00 0.00 0.00 0.00 0.00 0.00 0.00 0.00 0.00 0.00 0.00 0.01 0.01 0.02 0.05 0.07 0.04 0.02 0.02 0.03 0.04 0.05 0.05 0.04 0.05 0.07 0.06 0.05 0.05 0.05 0.05 0.05 0.05 0.06 0.06 0.06
0.00 0.00 0.00 0.00 0.00 0.00 0.00 0.00 0.00 0.00 0.00 0.00 0.00 0.00 0.00 0.00 0.00 0.00 0.01 0.01 0.01 0.03 0.06 0.07 0.04 0.02 0.02 0.03 0.04 0.05 0.06 0.05 0.05 0.07 0.05 0.04 0.05 0.05 0.05 0.05 0.05 0.05 0.05
0.00 0.00 0.00 0.00 0.00 0.00 0.00 0.00 0.00 0.00 0.00 0.00 0.00 0.00 0.00 0.00 0.01 0.01 0.01 0.01 0.01 0.01 0.03 0.06 0.05 0.03 0.02 0.02 0.03 0.04 0.04 0.05 0.05 0.06 0.06 0.04 0.04 0.05 0.05 0.05 0.06 0.05 0.06
0.00 0.00 0.00 0.00 0.00 0.00 0.00 0.00 0.00 0.00 0.00 0.00 0.00 0.00 0.00 0.00 0.00 0.01 0.01 0.01 0.01 0.01 0.01 0.03 0.05 0.04 0.03 0.03 0.03 0.03 0.03 0.03 0.05 0.07 0.07 0.05 0.05 0.05 0.05 0.06 0.06 0.05 0.04
0.00 0.00 0.00 0.00 0.00 0.00 0.00 0.00 0.00 0.00 0.00 0.00 0.00 0.00 0.00 0.00 0.01 0.01 0.01 0.01 0.01 0.01 0.01 0.02 0.03 0.05 0.04 0.04 0.03 0.02 0.02 0.02 0.04 0.06 0.08 0.07 0.06 0.05 0.04 0.04 0.05 0.05 0.05
0.00 0.00 0.00 0.00 0.00 0.00 0.00 0.00 0.00 0.00 0.00 0.00 0.00 0.00 0.00 0.00 0.00 0.00 0.01 0.01 0.01 0.01 0.01 0.02 0.02 0.04 0.05 0.04 0.04 0.03 0.02 0.02 0.04 0.05 0.07 0.08 0.07 0.06 0.05 0.04 0.04 0.05 0.05
0.00 0.00 0.00 0.00 0.00 0.00 0.00 0.00 0.00 0.00 0.00 0.00 0.00 0.00 0.00 0.00 0.00 0.01 0.01 0.01 0.01 0.01 0.01 0.01 0.02 0.02 0.04 0.04 0.04 0.04 0.03 0.02 0.03 0.05 0.07 0.09 0.11 0.09 0.06 0.06 0.06 0.05 0.06
0.00 0.00 0.00 0.00 0.00 0.00 0.00 0.00 0.00 0.00 0.00 0.00 0.00 0.00 0.00 0.00 0.00 0.01 0.01 0.01 0.01 0.01 0.01 0.01 0.01 0.01 0.02 0.04 0.05 0.05 0.04 0.03 0.03 0.05 0.06 0.08 0.09 0.09 0.09 0.08 0.08 0.06 0.05
0.00 0.00 0.00 0.00 0.00 0.00 0.00 0.00 0.00 0.00 0.00 0.00 0.00 0.00 0.00 0.00 0.00 0.00 0.01 0.01 0.01 0.01 0.02 0.03 0.02 0.01 0.02 0.03 0.06 0.05 0.05 0.03 0.03 0.04 0.06 0.07 0.08 0.09 0.09 0.09 0.10 0.10 0.07
0.00 0.00 0.00 0.00 0.00 0.00 0.00 0.00 0.00 0.00 0.00 0.00 0.00 0.00 0.00 0.00 0.00 0.00 0.01 0.01 0.01 0.02 0.03 0.03 0.02 0.02 0.02 0.02 0.04 0.05 0.05 0.04 0.03 0.04 0.06 0.07 0.08 0.09 0.11 0.12 0.11 0.10 0.09

GEFSMA_prec_meanprec_120.txt.gz
QPF
0.10 0.11 0.12 0.14 0.18 0.18 0.18 0.17 0.12 0.11 0.10 0.08 0.07 0.05 0.05 0.04 0.03 0.02 0.02 0.03 0.07 0.11 0.16 0.16 0.12 0.08 0.06 0.05 0.04 0.03 0.03 0.02 0.01 0.01 0.01 0.01 0.01 0.00 0.01 0.01 0.00 0.00 0.00
0.10 0.13 0.14 0.14 0.14 0.13 0.14 0.15 0.13 0.11 0.10 0.09 0.08 0.07 0.06 0.06 0.04 0.03 0.03 0.03 0.06 0.10 0.14 0.19 0.20 0.16 0.10 0.07 0.05 0.04 0.04 0.03 0.01 0.01 0.01 0.01 0.01 0.01 0.00 0.00 0.00 0.00 0.00
0.11 0.11 0.13 0.12 0.09 0.07 0.07 0.09 0.10 0.12 0.12 0.10 0.11 0.09 0.07 0.06 0.05 0.04 0.03 0.04 0.04 0.07 0.11 0.15 0.20 0.21 0.18 0.13 0.08 0.06 0.06 0.05 0.02 0.01 0.01 0.01 0.01 0.01 0.00 0.00 0.00 0.00 0.00
0.09 0.10 0.08 0.06 0.05 0.04 0.04 0.07 0.09 0.11 0.11 0.09 0.09 0.09 0.06 0.05 0.05 0.04 0.03 0.03 0.04 0.04 0.06 0.12 0.20 0.23 0.23 0.18 0.14 0.09 0.07 0.06 0.04 0.02 0.01 0.01 0.00 0.01 0.00 0.00 0.00 0.00 0.00
0.07 0.06 0.04 0.03 0.04 0.04 0.04 0.05 0.05 0.07 0.07 0.07 0.06 0.06 0.05 0.04 0.04 0.03 0.03 0.03 0.03 0.03 0.05 0.08 0.16 0.19 0.20 0.23 0.22 0.17 0.14 0.11 0.07 0.04 0.02 0.01 0.01 0.00 0.00 0.00 0.00 0.00 0.00
0.04 0.03 0.02 0.03 0.02 0.03 0.04 0.04 0.05 0.06 0.06 0.06 0.06 0.05 0.04 0.04 0.04 0.03 0.02 0.03 0.04 0.04 0.05 0.07 0.08 0.12 0.15 0.18 0.21 0.21 0.17 0.13 0.10 0.08 0.05 0.04 0.03 0.01 0.01 0.00 0.00 0.00 0.00
0.02 0.02 0.02 0.02 0.02 0.03 0.03 0.02 0.03 0.04 0.04 0.04 0.04 0.04 0.03 0.03 0.03 0.04 0.03 0.03 0.03 0.04 0.05 0.05 0.07 0.07 0.08 0.11 0.14 0.18 0.20 0.18 0.14 0.10 0.08 0.05 0.03 0.01 0.01 0.01 0.01 0.01 0.00
0.00 0.00 0.00 0.00 0.00 0.00 0.00 0.01 0.01 0.01 0.01 0.01 0.01 0.02 0.02 0.02 0.02 0.03 0.03 0.03 0.04 0.04 0.04 0.04 0.05 0.06 0.08 0.09 0.08 0.14 0.20 0.23 0.23 0.16 0.10 0.08 0.06 0.04 0.02 0.01 0.01 0.01 0.00
0.00 0.00 0.00 0.00 0.00 0.00 0.00 0.00 0.00 0.00 0.00 0.00 0.01 0.01 0.01 0.00 0.01 0.01 0.02 0.02 0.03 0.04 0.04 0.04 0.04 0.05 0.07 0.08 0.07 0.09 0.15 0.17 0.22 0.24 0.19 0.13 0.08 0.07 0.05 0.03 0.01 0.01 0.01
0.00 0.00 0.00 0.00 0.00 0.00 0.00 0.00 0.00 0.00 0.00 0.00 0.00 0.01 0.01 0.01 0.01 0.00 0.00 0.01 0.01 0.01 0.02 0.03 0.03 0.03 0.05 0.07 0.06 0.07 0.09 0.11 0.15 0.23 0.26 0.21 0.14 0.09 0.07 0.06 0.04 0.02 0.01
0.00 0.00 0.00 0.00 0.00 0.00 0.01 0.01 0.01 0.00 0.00 0.00 0.00 0.00 0.01 0.01 0.01 0.01 0.00 0.00 0.01 0.01 0.01 0.02 0.02 0.02 0.04 0.06 0.06 0.06 0.07 0.08 0.11 0.17 0.23 0.25 0.23 0.17 0.11 0.07 0.06 0.05 0.02
0.00 0.00 0.00 0.00 0.00 0.00 0.00 0.00 0.00 0.00 0.00 0.00 0.00 0.00 0.00 0.00 0.01 0.01 0.01 0.01 0.01 0.01 0.01 0.01 0.01 0.02 0.03 0.04 0.04 0.05 0.06 0.08 0.09 0.10 0.13 0.18 0.24 0.25 0.22 0.16 0.12 0.09 0.05
0.00 0.00 0.00 0.00 0.00 0.00 0.00 0.00 0.00 0.00 0.00 0.00 0.00 0.00 0.00 0.00 0.00 0.01 0.01 0.00 0.01 0.02 0.01 0.00 0.00 0.01 0.02 0.03 0.03 0.05 0.06 0.08 0.08 0.09 0.11 0.14 0.16 0.19 0.20 0.22 0.20 0.16 0.11
0.00 0.00 0.00 0.00 0.00 0.00 0.00 0.00 0.00 0.00 0.00 0.00 0.00 0.00 0.00 0.00 0.00 0.01 0.01 0.01 0.01 0.01 0.02 0.01 0.00 0.01 0.01 0.02 0.04 0.05 0.04 0.05 0.06 0.07 0.08 0.09 0.12 0.15 0.16 0.16 0.18 0.18 0.16
0.00 0.00 0.00 0.00 0.00 0.00 0.00 0.00 0.00 0.00 0.00 0.00 0.00 0.00 0.00 0.00 0.00 0.00 0.00 0.01 0.01 0.01 0.01 0.01 0.01 0.01 0.01 0.01 0.02 0.03 0.03 0.04 0.06 0.07 0.07 0.06 0.06 0.08 0.10 0.11 0.10 0.11 0.11
0.00 0.00 0.00 0.00 0.00 0.00 0.00 0.00 0.00 0.00 0.00 0.00 0.00 0.00 0.00 0.00 0.00 0.00 0.00 0.00 0.01 0.01 0.01 0.01 0.01 0.01 0.01 0.01 0.01 0.02 0.02 0.03 0.04 0.05 0.05 0.05 0.05 0.06 0.06 0.08 0.08 0.07 0.08
0.00 0.00 0.00 0.00 0.00 0.00 0.00 0.00 0.00 0.00 0.00 0.00 0.00 0.00 0.00 0.00 0.00 0.00 0.00 0.00 0.00 0.01 0.01 0.01 0.01 0.01 0.01 0.01 0.01 0.01 0.02 0.02 0.03 0.03 0.03 0.03 0.04 0.05 0.04 0.04 0.06 0.07 0.07
0.00 0.00 0.00 0.00 0.00 0.00 0.00 0.00 0.00 0.00 0.00 0.00 0.00 0.00 0.00 0.00 0.00 0.00 0.00 0.00 0.00 0.01 0.01 0.01 0.01 0.01 0.02 0.01 0.01 0.01 0.01 0.01 0.01 0.02 0.02 0.02 0.03 0.04 0.04 0.04 0.04 0.04 0.06
0.00 0.00 0.00 0.00 0.00 0.00 0.00 0.00 0.00 0.00 0.00 0.00 0.00 0.00 0.00 0.00 0.00 0.00 0.00 0.00 0.00 0.00 0.01 0.01 0.01 0.01 0.02 0.02 0.02 0.01 0.01 0.01 0.01 0.01 0.01 0.02 0.02 0.02 0.02 0.03 0.04 0.04 0.04
0.00 0.00 0.00 0.00 0.00 0.00 0.00 0.00 0.00 0.00 0.00 0.00 0.00 0.00 0.00 0.00 0.00 0.00 0.00 0.00 0.00 0.00 0.00 0.00 0.01 0.01 0.02 0.02 0.02 0.02 0.01 0.01 0.01 0.01 0.01 0.01 0.01 0.01 0.01 0.02 0.03 0.04 0.04
0.00 0.00 0.00 0.00 0.00 0.00 0.00 0.00 0.00 0.00 0.00 0.00 0.00 0.00 0.00 0.00 0.00 0.00 0.00 0.00 0.00 0.00 0.00 0.00 0.01 0.01 0.01 0.02 0.02 0.02 0.02 0.01 0.01 0.01 0.01 0.01 0.01 0.01 0.01 0.01 0.02 0.02 0.03
0.00 0.00 0.00 0.00 0.00 0.00 0.00 0.00 0.00 0.00 0.00 0.00 0.00 0.00 0.00 0.00 0.00 0.00 0.00 0.00 0.00 0.00 0.00 0.00 0.00 0.01 0.01 0.02 0.02 0.02 0.02 0.02 0.01 0.01 0.01 0.01 0.01 0.01 0.01 0.01 0.01 0.01 0.01
0.00 0.00 0.00 0.00 0.00 0.00 0.00 0.00 0.00 0.00 0.00 0.00 0.00 0.00 0.00 0.00 0.00 0.00 0.00 0.00 0.00 0.00 0.00 0.01 0.00 0.00 0.00 0.01 0.02 0.03 0.03 0.02 0.01 0.01 0.01 0.01 0.02 0.02 0.02 0.01 0.01 0.02 0.02
0.00 0.00 0.00 0.00 0.00 0.00 0.00 0.00 0.00 0.00 0.00 0.00 0.00 0.00 0.00 0.00 0.00 0.00 0.00 0.00 0.00 0.00 0.00 0.01 0.01 0.01 0.01 0.01 0.01 0.02 0.02 0.03 0.03 0.02 0.01 0.01 0.02 0.02 0.03 0.02 0.02 0.02 0.02
0.00 0.00 0.00 0.00 0.00 0.00 0.00 0.00 0.00 0.00 0.00 0.00 0.00 0.00 0.00 0.00 0.00 0.00 0.00 0.00 0.00 0.00 0.00 0.00 0.00 0.01 0.01 0.01 0.01 0.01 0.02 0.03 0.03 0.02 0.01 0.01 0.01 0.02 0.03 0.04 0.04 0.03 0.03
0.00 0.00 0.00 0.00 0.00 0.00 0.00 0.00 0.00 0.00 0.00 0.00 0.00 0.00 0.00 0.00 0.00 0.00 0.00 0.00 0.01 0.01 0.01 0.01 0.01 0.01 0.01 0.01 0.02 0.01 0.01 0.02 0.03 0.02 0.02 0.01 0.02 0.02 0.04 0.05 0.05 0.05 0.04

GEFSMA_prec_meanprec_126.txt.gz
QPF
0.09 0.08 0.09 0.12 0.14 0.15 0.12 0.14 0.16 0.13 0.13 0.11 0.09 0.06 0.04 0.03 0.02 0.02 0.02 0.03 0.04 0.06 0.10 0.15 0.14 0.10 0.11 0.09 0.04 0.03 0.02 0.03 0.02 0.02 0.02 0.02 0.01 0.00 0.01 0.01 0.01 0.01 0.01
0.09 0.11 0.11 0.13 0.15 0.13 0.12 0.13 0.15 0.14 0.13 0.12 0.10 0.09 0.06 0.05 0.03 0.02 0.02 0.04 0.04 0.05 0.07 0.14 0.16 0.15 0.14 0.13 0.10 0.06 0.04 0.03 0.03 0.03 0.02 0.02 0.02 0.01 0.01 0.01 0.01 0.01 0.01
0.08 0.09 0.11 0.11 0.10 0.09 0.10 0.10 0.10 0.11 0.11 0.11 0.12 0.11 0.07 0.06 0.04 0.04 0.04 0.04 0.04 0.03 0.05 0.09 0.14 0.18 0.17 0.15 0.15 0.11 0.07 0.06 0.04 0.03 0.02 0.02 0.02 0.02 0.01 0.01 0.01 0.01 0.01
0.06 0.07 0.08 0.08 0.07 0.06 0.06 0.06 0.08 0.09 0.10 0.12 0.12 0.11 0.09 0.08 0.07 0.06 0.05 0.04 0.05 0.04 0.05 0.07 0.12 0.15 0.16 0.17 0.18 0.16 0.12 0.08 0.05 0.03 0.03 0.02 0.02 0.01 0.01 0.01 0.01 0.00 0.00
0.05 0.06 0.07 0.07 0.06 0.06 0.06 0.05 0.05 0.06 0.07 0.07 0.07 0.08 0.09 0.07 0.06 0.05 0.05 0.05 0.06 0.06 0.06 0.07 0.09 0.13 0.15 0.19 0.23 0.23 0.19 0.15 0.10 0.06 0.04 0.02 0.02 0.01 0.01 0.01 0.01 0.00 0.00
0.03 0.04 0.04 0.05 0.05 0.05 0.05 0.05 0.05 0.04 0.04 0.05 0.04 0.04 0.05 0.05 0.05 0.05 0.05 0.05 0.06 0.04 0.03 0.05 0.10 0.10 0.11 0.15 0.20 0.26 0.27 0.25 0.18 0.12 0.07 0.04 0.03 0.02 0.01 0.01 0.01 0.01 0.01
0.02 0.02 0.02 0.03 0.03 0.03 0.03 0.03 0.03 0.03 0.02 0.02 0.04 0.04 0.04 0.03 0.02 0.03 0.02 0.03 0.03 0.03 0.04 0.05 0.08 0.11 0.12 0.12 0.13 0.19 0.26 0.26 0.24 0.18 0.13 0.09 0.07 0.04 0.03 0.02 0.01 0.02 0.02
0.01 0.01 0.02 0.03 0.02 0.02 0.02 0.02 0.02 0.02 0.02 0.02 0.03 0.03 0.03 0.04 0.02 0.02 0.02 0.02 0.02 0.02 0.03 0.03 0.06 0.10 0.11 0.13 0.11 0.11 0.19 0.24 0.27 0.23 0.18 0.15 0.13 0.09 0.06 0.05 0.03 0.03 0.03
0.01 0.00 0.01 0.01 0.01 0.00 0.01 0.02 0.02 0.02 0.02 0.02 0.02 0.02 0.03 0.03 0.03 0.02 0.02 0.02 0.02 0.02 0.02 0.03 0.04 0.06 0.07 0.11 0.12 0.12 0.14 0.17 0.23 0.25 0.24 0.20 0.17 0.14 0.10 0.07 0.05 0.04 0.04
0.00 0.00 0.00 0.00 0.00 0.00 0.00 0.00 0.01 0.01 0.02 0.02 0.02 0.02 0.02 0.02 0.03 0.02 0.02 0.01 0.01 0.01 0.02 0.02 0.02 0.02 0.05 0.09 0.10 0.10 0.11 0.10 0.14 0.22 0.25 0.25 0.21 0.18 0.13 0.10 0.08 0.05 0.03
0.00 0.00 0.00 0.00 0.00 0.00 0.00 0.00 0.00 0.00 0.01 0.01 0.01 0.01 0.01 0.02 0.02 0.02 0.02 0.02 0.01 0.02 0.01 0.01 0.01 0.02 0.03 0.06 0.08 0.08 0.08 0.08 0.09 0.13 0.21 0.26 0.25 0.22 0.19 0.15 0.11 0.08 0.05
0.00 0.00 0.00 0.00 0.00 0.00 0.00 0.00 0.00 0.00 0.00 0.00 0.00 0.00 0.01 0.01 0.01 0.01 0.01 0.02 0.02 0.01 0.01 0.01 0.01 0.01 0.02 0.03 0.04 0.04 0.04 0.07 0.08 0.08 0.11 0.18 0.21 0.21 0.22 0.21 0.17 0.13 0.09
0.00 0.00 0.00 0.00 0.00 0.00 0.00 0.00 0.00 0.00 0.00 0.00 0.00 0.00 0.00 0.00 0.01 0.01 0.01 0.00 0.00 0.00 0.01 0.01 0.01 0.02 0.02 0.02 0.04 0.03 0.02 0.04 0.06 0.08 0.10 0.11 0.14 0.16 0.17 0.21 0.22 0.20 0.16
0.00 0.00 0.00 0.00 0.00 0.00 0.00 0.00 0.00 0.00 0.00 0.00 0.00 0.00 0.00 0.00 0.00 0.00 0.01 0.01 0.00 0.00 0.00 0.00 0.01 0.01 0.01 0.02 0.03 0.03 0.03 0.04 0.05 0.06 0.07 0.08 0.10 0.12 0.13 0.16 0.19 0.20 0.19
0.00 0.00 0.00 0.00 0.00 0.00 0.00 0.00 0.00 0.00 0.00 0.00 0.00 0.00 0.00 0.00 0.00 0.00 0.00 0.01 0.01 0.00 0.00 0.00 0.01 0.01 0.01 0.01 0.02 0.02 0.03 0.03 0.03 0.04 0.05 0.05 0.06 0.08 0.10 0.11 0.13 0.15 0.15
0.00 0.00 0.00 0.00 0.00 0.00 0.00 0.00 0.00 0.00 0.00 0.00 0.00 0.00 0.00 0.00 0.00 0.00 0.00 0.00 0.01 0.01 0.01 0.00 0.00 0.00 0.01 0.01 0.01 0.01 0.02 0.03 0.02 0.03 0.04 0.05 0.05 0.06 0.06 0.07 0.09 0.11 0.13
0.00 0.00 0.00 0.00 0.00 0.00 0.00 0.00 0.00 0.00 0.00 0.00 0.00 0.00 0.00 0.00 0.00 0.00 0.00 0.00 0.00 0.01 0.01 0.00 0.00 0.01 0.01 0.01 0.01 0.01 0.01 0.02 0.03 0.02 0.03 0.04 0.05 0.05 0.05 0.05 0.06 0.07 0.08
0.00 0.00 0.00 0.00 0.00 0.00 0.00 0.00 0.00 0.00 0.00 0.00 0.00 0.00 0.00 0.00 0.00 0.00 0.00 0.00 0.00 0.01 0.01 0.00 0.00 0.00 0.00 0.01 0.01 0.01 0.01 0.01 0.02 0.02 0.02 0.02 0.02 0.03 0.03 0.04 0.04 0.04 0.05
0.00 0.00 0.00 0.00 0.00 0.00 0.00 0.00 0.00 0.00 0.00 0.00 0.00 0.00 0.00 0.00 0.00 0.00 0.00 0.00 0.00 0.00 0.01 0.01 0.00 0.00 0.00 0.00 0.01 0.01 0.01 0.01 0.01 0.01 0.02 0.02 0.02 0.02 0.02 0.03 0.04 0.04 0.04
0.00 0.00 0.00 0.00 0.00 0.00 0.00 0.00 0.00 0.00 0.00 0.00 0.00 0.00 0.00 0.00 0.00 0.00 0.00 0.01 0.01 0.01 0.01 0.01 0.00 0.00 0.00 0.00 0.01 0.01 0.01 0.01 0.01 0.01 0.01 0.02 0.02 0.02 0.02 0.02 0.02 0.03 0.03
0.00 0.00 0.00 0.00 0.00 0.00 0.00 0.00 0.00 0.00 0.00 0.00 0.00 0.00 0.00 0.00 0.00 0.00 0.00 0.00 0.01 0.01 0.01 0.01 0.00 0.00 0.00 0.00 0.01 0.01 0.01 0.01 0.01 0.01 0.02 0.02 0.02 0.03 0.02 0.02 0.02 0.02 0.02
0.00 0.00 0.00 0.00 0.00 0.00 0.00 0.00 0.00 0.00 0.00 0.00 0.00 0.00 0.00 0.00 0.00 0.00 0.00 0.00 0.00 0.00 0.01 0.01 0.01 0.01 0.01 0.01 0.01 0.01 0.01 0.01 0.01 0.02 0.02 0.02 0.03 0.04 0.04 0.03 0.02 0.02 0.02
0.00 0.00 0.00 0.00 0.00 0.00 0.00 0.00 0.00 0.00 0.00 0.00 0.00 0.00 0.00 0.00 0.00 0.00 0.00 0.00 0.00 0.00 0.00 0.00 0.01 0.01 0.01 0.01 0.02 0.02 0.03 0.03 0.02 0.03 0.04 0.03 0.03 0.03 0.02 0.02 0.02 0.01 0.01
0.00 0.00 0.00 0.00 0.00 0.00 0.00 0.00 0.00 0.00 0.00 0.00 0.00 0.00 0.00 0.00 0.00 0.00 0.00 0.00 0.00 0.00 0.00 0.00 0.01 0.01 0.01 0.02 0.03 0.03 0.03 0.04 0.03 0.02 0.03 0.02 0.02 0.02 0.02 0.02 0.01 0.01 0.01
0.00 0.00 0.00 0.00 0.00 0.00 0.00 0.00 0.00 0.00 0.00 0.00 0.00 0.00 0.00 0.00 0.00 0.00 0.00 0.00 0.00 0.01 0.00 0.00 0.00 0.00 0.00 0.00 0.01 0.01 0.02 0.03 0.03 0.03 0.04 0.03 0.02 0.02 0.02 0.02 0.01 0.01 0.01
0.00 0.00 0.00 0.00 0.00 0.00 0.00 0.00 0.00 0.00 0.00 0.00 0.00 0.00 0.00 0.00 0.00 0.00 0.00 0.00 0.01 0.01 0.01 0.01 0.01 0.01 0.01 0.01 0.00 0.01 0.02 0.03 0.04 0.04 0.05 0.05 0.03 0.04 0.03 0.02 0.01 0.01 0.01

GEFSMA_prec_meanprec_132.txt.gz
QPF
0.11 0.11 0.09 0.09 0.09 0.09 0.10 0.11 0.10 0.10 0.09 0.07 0.04 0.02 0.01 0.02 0.02 0.04 0.08 0.06 0.04 0.03 0.04 0.06 0.05 0.04 0.04 0.05 0.04 0.02 0.02 0.02 0.02 0.02 0.02 0.03 0.03 0.02 0.02 0.02 0.02 0.02 0.01
0.11 0.11 0.10 0.08 0.05 0.06 0.08 0.10 0.09 0.08 0.08 0.08 0.07 0.04 0.03 0.03 0.02 0.02 0.04 0.06 0.03 0.03 0.03 0.05 0.06 0.07 0.06 0.05 0.05 0.05 0.04 0.03 0.03 0.03 0.02 0.03 0.03 0.02 0.01 0.02 0.02 0.01 0.01
0.08 0.08 0.09 0.08 0.06 0.07 0.08 0.08 0.10 0.09 0.08 0.09 0.10 0.08 0.07 0.05 0.04 0.03 0.03 0.05 0.05 0.04 0.03 0.03 0.06 0.09 0.09 0.08 0.08 0.09 0.07 0.05 0.04 0.03 0.03 0.02 0.02 0.02 0.02 0.01 0.01 0.01 0.01
0.05 0.07 0.09 0.08 0.07 0.05 0.06 0.08 0.09 0.10 0.10 0.09 0.08 0.06 0.07 0.07 0.04 0.04 0.03 0.04 0.06 0.05 0.07 0.06 0.05 0.06 0.08 0.10 0.10 0.11 0.09 0.07 0.05 0.04 0.04 0.02 0.02 0.02 0.02 0.01 0.01 0.01 0.01
0.05 0.06 0.07 0.07 0.05 0.05 0.05 0.05 0.08 0.10 0.09 0.08 0.07 0.07 0.07 0.06 0.06 0.04 0.04 0.06 0.05 0.05 0.07 0.08 0.05 0.05 0.06 0.10 0.11 0.12 0.13 0.11 0.08 0.05 0.05 0.03 0.02 0.02 0.01 0.01 0.01 0.01 0.00
0.04 0.05 0.07 0.07 0.07 0.06 0.06 0.06 0.07 0.08 0.07 0.07 0.06 0.08 0.06 0.05 0.05 0.06 0.04 0.06 0.06 0.03 0.06 0.10 0.13 0.08 0.06 0.07 0.09 0.10 0.13 0.15 0.14 0.11 0.08 0.05 0.05 0.03 0.02 0.01 0.01 0.01 0.01
0.03 0.03 0.05 0.07 0.06 0.06 0.05 0.06 0.06 0.06 0.06 0.05 0.07 0.07 0.04 0.04 0.06 0.06 0.06 0.06 0.05 0.04 0.06 0.11 0.14 0.15 0.14 0.10 0.08 0.08 0.12 0.16 0.16 0.16 0.13 0.10 0.09 0.07 0.05 0.03 0.02 0.02 0.02
0.01 0.02 0.03 0.03 0.03 0.03 0.04 0.03 0.03 0.04 0.03 0.03 0.05 0.06 0.05 0.06 0.06 0.04 0.05 0.05 0.05 0.06 0.05 0.06 0.09 0.13 0.15 0.15 0.11 0.11 0.14 0.16 0.18 0.17 0.16 0.16 0.13 0.10 0.08 0.05 0.03 0.02 0.02
0.01 0.02 0.02 0.02 0.02 0.02 0.03 0.02 0.02 0.02 0.03 0.03 0.04 0.04 0.04 0.06 0.07 0.05 0.03 0.04 0.05 0.05 0.05 0.05 0.06 0.09 0.12 0.15 0.15 0.14 0.16 0.15 0.16 0.18 0.18 0.18 0.18 0.15 0.13 0.10 0.07 0.04 0.03
0.00 0.01 0.01 0.01 0.01 0.01 0.01 0.01 0.02 0.01 0.02 0.03 0.04 0.03 0.03 0.04 0.05 0.05 0.03 0.03 0.02 0.03 0.03 0.02 0.02 0.04 0.07 0.11 0.14 0.14 0.13 0.12 0.14 0.18 0.19 0.18 0.19 0.17 0.14 0.13 0.11 0.08 0.05
0.00 0.00 0.00 0.00 0.00 0.00 0.00 0.00 0.00 0.00 0.01 0.01 0.01 0.01 0.01 0.02 0.03 0.03 0.04 0.03 0.02 0.01 0.01 0.01 0.01 0.02 0.03 0.07 0.11 0.10 0.10 0.11 0.11 0.16 0.20 0.20 0.19 0.19 0.15 0.12 0.11 0.10 0.08
0.00 0.00 0.00 0.00 0.00 0.00 0.00 0.00 0.00 0.00 0.00 0.00 0.01 0.01 0.01 0.01 0.01 0.01 0.02 0.03 0.02 0.01 0.00 0.01 0.01 0.01 0.01 0.04 0.05 0.04 0.05 0.07 0.09 0.10 0.12 0.16 0.18 0.19 0.18 0.16 0.14 0.13 0.11
0.01 0.00 0.00 0.00 0.00 0.00 0.00 0.00 0.00 0.00 0.00 0.00 0.00 0.00 0.00 0.00 0.00 0.01 0.01 0.01 0.01 0.00 0.00 0.00 0.00 0.00 0.01 0.02 0.03 0.02 0.01 0.02 0.02 0.04 0.05 0.07 0.09 0.12 0.14 0.16 0.17 0.17 0.16
0.00 0.00 0.00 0.00 0.00 0.00 0.00 0.00 0.00 0.00 0.00 0.00 0.00 0.00 0.00 0.00 0.00 0.00 0.00 0.00 0.00 0.00 0.00 0.00 0.00 0.00 0.00 0.01 0.01 0.00 0.01 0.01 0.01 0.01 0.02 0.06 0.08 0.09 0.10 0.12 0.14 0.16 0.17
0.00 0.00 0.00 0.00 0.00 0.00 0.00 0.00 0.00 0.00 0.00 0.00 0.00 0.00 0.00 0.00 0.00 0.00 0.00 0.00 0.00 0.00 0.00 0.01 0.00 0.00 0.00 0.01 0.00 0.00 0.02 0.01 0.00 0.00 0.01 0.02 0.04 0.06 0.08 0.09 0.11 0.14 0.14
0.00 0.00 0.00 0.00 0.00 0.00 0.00 0.00 0.00 0.00 0.00 0.00 0.00 0.00 0.00 0.00 0.00 0.00 0.00 0.00 0.00 0.00 0.00 0.00 0.00 0.00 0.00 0.00 0.00 0.00 0.01 0.01 0.00 0.00 0.00 0.01 0.02 0.03 0.03 0.04 0.06 0.08 0.09
0.00 0.00 0.00 0.00 0.00 0.00 0.00 0.00 0.00 0.00 0.00 0.00 0.00 0.00 0.00 0.00 0.00 0.00 0.00 0.00 0.00 0.00 0.00 0.00 0.00 0.00 0.00 0.01 0.01 0.00 0.01 0.01 0.00 0.00 0.00 0.00 0.01 0.02 0.02 0.02 0.03 0.04 0.06
0.00 0.00 0.00 0.00 0.00 0.00 0.00 0.00 0.00 0.00 0.00 0.00 0.00 0.00 0.00 0.00 0.00 0.00 0.00 0.00 0.00 0.00 0.00 0.00 0.00 0.00 0.00 0.00 0.01 0.01 0.00 0.00 0.00 0.01 0.00 0.00 0.00 0.01 0.01 0.01 0.01 0.01 0.02
0.00 0.00 0.00 0.00 0.00 0.00 0.00 0.00 0.00 0.00 0.00 0.00 0.00 0.00 0.00 0.00 0.00 0.00 0.01 0.00 0.00 0.00 0.01 0.01 0.00 0.00 0.00 0.00 0.00 0.00 0.00 0.00 0.00 0.00 0.00 0.00 0.00 0.00 0.00 0.00 0.00 0.00 0.01
0.00 0.00 0.00 0.00 0.00 0.00 0.00 0.00 0.00 0.00 0.00 0.00 0.00 0.00 0.00 0.00 0.01 0.01 0.01 0.01 0.00 0.00 0.01 0.01 0.00 0.00 0.00 0.00 0.00 0.00 0.00 0.00 0.00 0.00 0.00 0.00 0.00 0.00 0.00 0.00 0.00 0.00 0.01
0.00 0.00 0.00 0.00 0.00 0.00 0.00 0.00 0.00 0.00 0.00 0.00 0.00 0.00 0.00 0.00 0.00 0.00 0.00 0.00 0.00 0.00 0.00 0.00 0.00 0.00 0.00 0.01 0.00 0.00 0.00 0.00 0.00 0.00 0.01 0.00 0.01 0.01 0.01 0.01 0.00 0.00 0.00
0.00 0.00 0.00 0.00 0.00 0.00 0.00 0.00 0.00 0.00 0.00 0.00 0.00 0.00 0.00 0.00 0.00 0.00 0.00 0.00 0.00 0.00 0.00 0.00 0.00 0.00 0.01 0.01 0.01 0.01 0.00 0.01 0.01 0.01 0.02 0.01 0.01 0.02 0.02 0.02 0.01 0.00 0.00
0.00 0.00 0.00 0.00 0.00 0.00 0.00 0.00 0.00 0.00 0.00 0.00 0.00 0.00 0.00 0.00 0.00 0.00 0.00 0.00 0.00 0.00 0.00 0.00 0.00 0.00 0.00 0.01 0.02 0.01 0.02 0.02 0.01 0.01 0.02 0.01 0.01 0.01 0.01 0.01 0.01 0.01 0.00
0.00 0.00 0.00 0.00 0.00 0.00 0.00 0.00 0.00 0.00 0.00 0.00 0.00 0.00 0.00 0.00 0.00 0.00 0.01 0.01 0.01 0.01 0.01 0.01 0.01 0.01 0.01 0.02 0.02 0.02 0.01 0.01 0.01 0.01 0.02 0.01 0.01 0.01 0.01 0.02 0.01 0.01 0.00
0.00 0.00 0.00 0.00 0.00 0.00 0.00 0.00 0.00 0.00 0.00 0.00 0.00 0.00 0.00 0.00 0.00 0.00 0.00 0.01 0.01 0.01 0.00 0.00 0.00 0.00 0.00 0.00 0.00 0.00 0.00 0.01 0.01 0.01 0.02 0.02 0.01 0.01 0.01 0.01 0.01 0.01 0.01
0.00 0.00 0.00 0.00 0.00 0.00 0.00 0.00 0.00 0.00 0.00 0.00 0.00 0.00 0.00 0.00 0.00 0.00 0.00 0.01 0.01 0.01 0.02 0.01 0.02 0.01 0.01 0.01 0.01 0.00 0.00 0.00 0.01 0.01 0.02 0.04 0.02 0.04 0.02 0.01 0.02 0.02 0.02

GEFSMA_prec_meanprec_138.txt.gz
QPF
0.03 0.03 0.03 0.03 0.03 0.03 0.03 0.03 0.03 0.04 0.04 0.05 0.06 0.06 0.07 0.10 0.17 0.14 0.08 0.08 0.07 0.07 0.08 0.06 0.04 0.04 0.04 0.05 0.04 0.03 0.02 0.01 0.01 0.01 0.02 0.02 0.02 0.01 0.01 0.02 0.03 0.02 0.01
0.02 0.02 0.02 0.02 0.02 0.04 0.03 0.03 0.03 0.04 0.04 0.04 0.04 0.05 0.05 0.06 0.09 0.09 0.06 0.06 0.07 0.07 0.08 0.10 0.09 0.07 0.06 0.06 0.05 0.05 0.04 0.02 0.02 0.02 0.01 0.01 0.02 0.02 0.01 0.02 0.02 0.02 0.01
0.03 0.03 0.03 0.02 0.03 0.04 0.03 0.03 0.03 0.02 0.02 0.02 0.02 0.02 0.02 0.03 0.05 0.06 0.06 0.06 0.05 0.07 0.09 0.10 0.11 0.09 0.07 0.07 0.06 0.05 0.04 0.03 0.03 0.03 0.03 0.02 0.01 0.01 0.01 0.02 0.02 0.01 0.01
0.02 0.02 0.02 0.03 0.03 0.06 0.03 0.03 0.02 0.02 0.02 0.02 0.02 0.02 0.02 0.03 0.03 0.04 0.04 0.04 0.04 0.05 0.08 0.10 0.10 0.09 0.10 0.08 0.08 0.07 0.05 0.04 0.02 0.03 0.03 0.03 0.02 0.02 0.02 0.01 0.02 0.01 0.01
0.01 0.01 0.01 0.02 0.02 0.05 0.04 0.02 0.02 0.02 0.01 0.02 0.01 0.02 0.03 0.03 0.02 0.02 0.02 0.03 0.04 0.05 0.06 0.07 0.08 0.08 0.08 0.11 0.11 0.11 0.09 0.07 0.05 0.03 0.03 0.03 0.03 0.03 0.02 0.02 0.01 0.01 0.00
0.01 0.01 0.01 0.01 0.01 0.03 0.04 0.03 0.03 0.02 0.01 0.02 0.02 0.02 0.03 0.02 0.02 0.01 0.02 0.02 0.03 0.05 0.08 0.08 0.08 0.06 0.08 0.09 0.10 0.12 0.13 0.14 0.12 0.10 0.07 0.05 0.04 0.04 0.03 0.03 0.02 0.01 0.00
0.01 0.01 0.00 0.01 0.01 0.01 0.02 0.02 0.01 0.01 0.01 0.01 0.02 0.02 0.01 0.01 0.01 0.01 0.01 0.02 0.03 0.06 0.08 0.09 0.08 0.07 0.06 0.08 0.07 0.10 0.12 0.15 0.15 0.12 0.11 0.09 0.08 0.06 0.05 0.04 0.03 0.02 0.01
0.00 0.00 0.00 0.00 0.00 0.00 0.01 0.01 0.01 0.00 0.00 0.01 0.01 0.01 0.01 0.01 0.01 0.01 0.02 0.01 0.02 0.03 0.05 0.06 0.06 0.07 0.06 0.06 0.06 0.09 0.12 0.14 0.16 0.15 0.14 0.12 0.10 0.08 0.07 0.06 0.05 0.03 0.02
0.00 0.00 0.00 0.00 0.01 0.01 0.01 0.01 0.01 0.01 0.01 0.01 0.00 0.00 0.00 0.00 0.01 0.01 0.02 0.01 0.01 0.01 0.01 0.03 0.04 0.04 0.05 0.05 0.05 0.07 0.09 0.11 0.15 0.19 0.18 0.16 0.13 0.10 0.09 0.08 0.08 0.06 0.04
0.00 0.00 0.00 0.00 0.01 0.01 0.01 0.01 0.00 0.00 0.01 0.00 0.00 0.00 0.00 0.00 0.00 0.00 0.01 0.01 0.04 0.02 0.01 0.01 0.01 0.02 0.04 0.05 0.05 0.06 0.06 0.06 0.09 0.13 0.18 0.20 0.16 0.12 0.10 0.10 0.11 0.10 0.08
0.00 0.00 0.00 0.00 0.00 0.00 0.00 0.00 0.00 0.00 0.00 0.00 0.00 0.00 0.00 0.00 0.00 0.00 0.00 0.00 0.00 0.01 0.01 0.01 0.00 0.01 0.01 0.03 0.04 0.05 0.06 0.06 0.07 0.09 0.13 0.17 0.18 0.16 0.14 0.13 0.13 0.14 0.12
0.00 0.00 0.00 0.00 0.00 0.00 0.00 0.00 0.00 0.00 0.00 0.00 0.00 0.00 0.00 0.00 0.00 0.00 0.00 0.00 0.00 0.00 0.00 0.00 0.00 0.00 0.01 0.02 0.02 0.03 0.03 0.03 0.04 0.05 0.07 0.10 0.13 0.14 0.13 0.13 0.15 0.16 0.15
0.00 0.00 0.00 0.00 0.00 0.00 0.00 0.00 0.00 0.00 0.00 0.00 0.00 0.00 0.00 0.00 0.00 0.00 0.00 0.00 0.00 0.00 0.00 0.00 0.00 0.00 0.00 0.00 0.00 0.00 0.00 0.00 0.01 0.02 0.03 0.04 0.06 0.08 0.11 0.12 0.13 0.16 0.17
0.00 0.00 0.00 0.00 0.00 0.00 0.00 0.00 0.00 0.00 0.00 0.00 0.00 0.00 0.00 0.00 0.00 0.00 0.00 0.00 0.00 0.00 0.00 0.00 0.00 0.00 0.00 0.00 0.00 0.00 0.00 0.00 0.00 0.01 0.01 0.01 0.02 0.03 0.05 0.06 0.09 0.10 0.13
0.00 0.00 0.00 0.00 0.00 0.00 0.00 0.00 0.00 0.00 0.00 0.00 0.00 0.00 0.00 0.00 0.00 0.00 0.00 0.00 0.00 0.00 0.00 0.00 0.00 0.00 0.00 0.00 0.00 0.00 0.00 0.00 0.00 0.00 0.00 0.01 0.01 0.01 0.02 0.03 0.03 0.04 0.06
0.00 0.00 0.00 0.00 0.00 0.00 0.00 0.00 0.00 0.00 0.00 0.00 0.00 0.00 0.00 0.00 0.00 0.00 0.00 0.00 0.00 0.00 0.00 0.00 0.00 0.00 0.00 0.00 0.00 0.00 0.00 0.00 0.00 0.00 0.00 0.00 0.00 0.00 0.00 0.01 0.02 0.03 0.03
0.00 0.00 0.00 0.00 0.00 0.00 0.00 0.00 0.00 0.00 0.00 0.00 0.00 0.00 0.00 0.00 0.00 0.00 0.00 0.00 0.00 0.00 0.00 0.00 0.00 0.00 0.00 0.00 0.00 0.00 0.00 0.00 0.00 0.00 0.00 0.00 0.00 0.00 0.00 0.00 0.01 0.01 0.02
0.00 0.00 0.00 0.00 0.00 0.00 0.00 0.00 0.00 0.00 0.00 0.00 0.00 0.00 0.00 0.00 0.00 0.00 0.00 0.00 0.00 0.00 0.00 0.00 0.00 0.00 0.00 0.00 0.00 0.00 0.00 0.00 0.00 0.00 0.00 0.00 0.00 0.00 0.00 0.01 0.01 0.01 0.01
0.00 0.00 0.00 0.00 0.00 0.00 0.00 0.00 0.00 0.00 0.00 0.00 0.00 0.00 0.00 0.00 0.00 0.00 0.00 0.00 0.00 0.00 0.00 0.00 0.00 0.00 0.00 0.00 0.00 0.00 0.00 0.00 0.00 0.00 0.00 0.00 0.00 0.00 0.00 0.00 0.01 0.01 0.01
0.00 0.00 0.00 0.00 0.00 0.00 0.00 0.00 0.00 0.00 0.00 0.00 0.00 0.00 0.00 0.00 0.00 0.00 0.00 0.00 0.00 0.00 0.00 0.00 0.00 0.00 0.00 0.00 0.00 0.00 0.00 0.00 0.00 0.00 0.00 0.00 0.00 0.00 0.00 0.00 0.00 0.01 0.01
0.00 0.00 0.00 0.00 0.00 0.00 0.00 0.00 0.00 0.00 0.00 0.00 0.00 0.00 0.00 0.00 0.00 0.00 0.00 0.00 0.00 0.00 0.00 0.00 0.00 0.00 0.00 0.00 0.00 0.00 0.00 0.00 0.00 0.00 0.00 0.00 0.00 0.00 0.00 0.00 0.00 0.00 0.00
0.00 0.00 0.00 0.00 0.00 0.00 0.00 0.00 0.00 0.00 0.00 0.00 0.00 0.00 0.00 0.00 0.00 0.00 0.00 0.00 0.00 0.00 0.00 0.00 0.00 0.00 0.00 0.00 0.00 0.00 0.00 0.00 0.00 0.00 0.00 0.00 0.00 0.00 0.00 0.00 0.00 0.00 0.00
0.00 0.00 0.00 0.00 0.00 0.00 0.00 0.00 0.00 0.00 0.00 0.00 0.00 0.00 0.00 0.00 0.00 0.00 0.00 0.00 0.00 0.00 0.00 0.00 0.00 0.00 0.00 0.00 0.00 0.00 0.00 0.00 0.00 0.00 0.00 0.00 0.00 0.00 0.00 0.00 0.00 0.00 0.00
0.00 0.00 0.00 0.00 0.00 0.00 0.00 0.00 0.00 0.00 0.00 0.00 0.00 0.00 0.00 0.00 0.00 0.00 0.00 0.00 0.00 0.00 0.00 0.00 0.00 0.00 0.00 0.00 0.00 0.00 0.00 0.00 0.00 0.00 0.00 0.00 0.00 0.00 0.00 0.00 0.00 0.00 0.00
0.00 0.00 0.00 0.00 0.00 0.00 0.00 0.00 0.00 0.00 0.00 0.00 0.00 0.00 0.00 0.00 0.00 0.00 0.00 0.00 0.00 0.00 0.00 0.00 0.00 0.00 0.00 0.00 0.00 0.00 0.00 0.00 0.00 0.00 0.00 0.00 0.00 0.00 0.00 0.00 0.00 0.00 0.00
0.00 0.00 0.00 0.00 0.00 0.00 0.00 0.00 0.00 0.00 0.00 0.00 0.00 0.00 0.00 0.00 0.00 0.00 0.00 0.00 0.00 0.00 0.00 0.00 0.00 0.00 0.00 0.00 0.00 0.00 0.00 0.01 0.00 0.00 0.00 0.00 0.00 0.00 0.00 0.00 0.00 0.00 0.00